Location: Shenandoah County Park
(38.9356°N, 78.4524°W)
Time: 13:13:52
(UTC-05:00)

Transit 2A - Pass Details

Date: 21 October 2025
Orbit: 591 x 954 km, 66.7° (Epoch: 07 November)

Event Time Altitude Azimuth Distance (km) Brightness Sun altitude
Rises 18:40:32 0° 214° (SW) 2,944 9.8 -3.5°
Reaches altitude 10° 18:42:43 10° 217° (SW) 2,081 9.1 -3.9°
Maximum altitude 18:47:25 68° 301° (WNW) 769 6.3 -4.8°
Drops below altitude 10° 18:52:41 10° 24° (NNE) 2,324 8.2 -5.8°
Sets 18:55:15 0° 27° (NNE) 3,318 8.9 -6.3°
